sat.trackr.live / text

‹ back to catalog

STARLINK-30366

NORAD 57749 · 2023-131T

PAYLOAD ACTIVE UNKNOWN

§ Identity

Operator
Country
US
Launch date
2023-09-01
Launch site
AFETR
Launch vehicle
Mass (kg)
RCS (m²)

Purposes: comms

External: N2YO · Heavens-Above · Gunter

§ Orbital elements

Epoch: 2026-05-25T03:48:49.118976Z

Period
94.37 min
Inclination
43.0028°
Eccentricity
0.0001645
Mean motion
15.25911644 rev/d
Perigee alt
486.9 km
Apogee alt
489.2 km
Semi-major
6,866.2 km
B*
2.8144e-5
RAAN
103.8218°
Arg perigee
277.9223°
Mean anomaly
82.1442°
Rev number
15,157

§ Raw data

STARLINK-303661 57749U 23131T   26145.15890184  .00000479  00000+0  28144-4 0  99982 57749  43.0028 103.8218 0001645 277.9223  82.1442 15.25911644151570

JSON: /api/v1/satellites/57749 · /tle

For live sub-satellite position, see the globe view (requires WebGL).

§ Visibility from observer

Set your observer location to see the next 7 days of passes ≥ 10°. The values pass through the URL so the page stays shareable.

No JS? Fill the form by hand. The geolocation button needs JavaScript.